,,PA_Meas_PMT16A,,PR_Meas_QMR101_102,,RH_Meas_QMH101,,SR_Meas_QMS101,,TA_Meas_QMH101,,GenWind,,GenWind,
time,status,PA,status,PR,status,RH,status,SR,status,TA,status,DirAvg,status,SpdAvg,
2017-02-03, 00:00:04,VALID,916.595,VALID,0,VALID,52.6168,VALID,226.808,VALID,27.5017,VALID,12,VALID,0,
2017-02-03, 14:39:04,VALID,918.303,VALID,0,VALID,90.4976,VALID,102.499,VALID,18.4188,VALID,150,VALID,2.56016,
2017-02-03, 14:40:04,VALID,918.32,VALID,0,VALID,91.0312,VALID,101.854,VALID,18.4188,VALID,156,VALID,2.7082,
2017-02-03, 14:41:04,VALID,918.296,VALID,0,VALID,93.768,VALID,103.036,VALID,18.3979,VALID,145,VALID,2.91016,
2017-02-03, 14:42:04,VALID,918.318,VALID,0,VALID,94.1263,VALID,102.177,VALID,18.3784,VALID,141,VALID,2.64023,
2017-02-03, 14:44:04,VALID,918.338,VALID,0,VALID,102.2,VALID,106.259,VALID,18.3589,VALID,143,VALID,2.55039,
2017-02-03, 14:45:04,VALID,918.36,VALID,0,VALID,104,VALID,106.044,VALID,18.4174,VALID,146,VALID,2.59609,
2017-02-03, 14:46:04,VALID,918.374,VALID,0,VALID,101.536,VALID,107.549,VALID,18.5344,VALID,142,VALID,2.51523,
2017-02-03, 14:47:04,VALID,918.37,VALID,0,VALID,95.3461,VALID,110.127,VALID,18.5539,VALID,150,VALID,2.6457,
2017-02-03, 14:49:04,VALID,918.397,VALID,0,VALID,97.6026,VALID,117.111,VALID,18.6319,VALID,150,VALID,2.48711,
2017-02-03, 14:50:04,VALID,918.417,VALID,0,VALID,95.0183,VALID,123.665,VALID,18.6708,VALID,148,VALID,3.02266,
2017-02-03, 14:51:04,VALID,918.408,VALID,0,VALID,98.0905,VALID,140.963,VALID,18.7474,VALID,145,VALID,2.86211,
2017-02-03, 14:52:04,VALID,918.404,VALID,0,VALID,96.0703,VALID,160.517,VALID,18.8073,VALID,148,VALID,2.61094,
2017-02-03, 14:53:04,VALID,918.426,VALID,0,VALID,99.1273,VALID,165.997,VALID,18.8839,VALID,144,VALID,2.54063,
2017-02-03, 14:54:04,VALID,918.431,VALID,0,VALID,95.9712,VALID,169.972,VALID,18.9229,VALID,150,VALID,2.6125,
2017-02-03, 14:55:04,VALID,918.424,VALID,0,VALID,95.59,VALID,169.005,VALID,18.9034,VALID,148,VALID,2.56133,
2017-02-03, 14:56:04,VALID,918.421,VALID,0,VALID,91.5648,VALID,173.625,VALID,18.9814,VALID,143,VALID,2.64219,
2017-02-03, 14:57:04,VALID,918.42,VALID,0,VALID,93.0819,VALID,180.394,VALID,19.1178,VALID,133,VALID,2.42148,
2017-02-03, 14:58:04,VALID,918.396,VALID,0,VALID,89.6437,VALID,186.196,VALID,19.2543,VALID,141,VALID,2.06094,
2017-02-03, 14:59:04,VALID,918.437,VALID,0,VALID,89.9029,VALID,196.402,VALID,19.3518,VALID,146,VALID,2.36992,
2017-02-03, 15:00:04,VALID,918.413,VALID,0,VALID,86.8383,VALID,201.882,VALID,19.4493,VALID,142,VALID,2.63086,
2017-02-03, 15:01:04,VALID,918.437,VALID,0,VALID,85.7787,VALID,206.932,VALID,19.5663,VALID,142,VALID,2.33867,
2017-02-03, 15:02:04,VALID,918.434,VALID,0,VALID,87.2119,VALID,212.089,VALID,19.6653,VALID,138,VALID,2.13125,
2017-02-03, 15:03:04,VALID,918.458,VALID,0,VALID,86.541,VALID,217.783,VALID,19.7418,VALID,140,VALID,1.82773,
2017-02-03, 15:04:04,VALID,918.49,VALID,0,VALID,86.9451,VALID,221.759,VALID,19.8213,VALID,135,VALID,1.55781,
2017-02-03, 15:05:04,VALID,918.502,VALID,0,VALID,85.4204,VALID,222.833,VALID,19.9383,VALID,148,VALID,2.11016,
2017-02-03, 15:06:04,VALID,918.515,VALID,0,VALID,84.658,VALID,225.304,VALID,19.9968,VALID,150,VALID,2.00586,
2017-02-03, 15:07:04,VALID,918.53,VALID,0,VALID,84.0405,VALID,230.784,VALID,19.9563,VALID,144,VALID,1.81211,
2017-02-03, 15:08:04,VALID,918.513,VALID,0,VALID,85.4966,VALID,235.189,VALID,20.0733,VALID,134,VALID,1.74336,
2017-02-03, 15:09:04,VALID,918.49,VALID,0,VALID,85.3213,VALID,240.883,VALID,20.1919,VALID,135,VALID,1.22852,
2017-02-03, 15:10:04,VALID,918.467,VALID,0,VALID,86.198,VALID,249.478,VALID,20.2894,VALID,117,VALID,1.26797,
2017-02-03, 15:11:04,VALID,918.451,VALID,0,VALID,84.6428,VALID,249.049,VALID,20.4244,VALID,121,VALID,0.980859,
2017-02-03, 15:12:04,VALID,918.441,VALID,0,VALID,84.2769,VALID,248.511,VALID,20.5219,VALID,137,VALID,1.30625,
2017-02-03, 15:13:04,VALID,918.43,VALID,0,VALID,83.3621,VALID,245.718,VALID,20.5999,VALID,122,VALID,1.24531,
2017-02-03, 15:14:04,VALID,918.46,VALID,0,VALID,82.0432,VALID,245.396,VALID,20.6959,VALID,114,VALID,1.72969,
2017-02-03, 15:15:04,VALID,918.432,VALID,0,VALID,82.3939,VALID,246.792,VALID,20.7739,VALID,107,VALID,1.61563,
2017-02-03, 15:16:04,VALID,918.441,VALID,0,VALID,84.6352,VALID,249.693,VALID,20.8145,VALID,108,VALID,1.22148,
2017-02-03, 15:17:04,VALID,918.436,VALID,0,VALID,85.0697,VALID,246.363,VALID,20.8714,VALID,88,VALID,1.16758,
2017-02-03, 15:18:04,VALID,918.478,VALID,0,VALID,82.6759,VALID,249.478,VALID,20.9495,VALID,79,VALID,1.38984,
2017-02-03, 15:19:04,VALID,918.486,VALID,0,VALID,80.6252,VALID,255.173,VALID,20.8925,VALID,108,VALID,1.54258,
2017-02-03, 15:20:04,VALID,918.484,VALID,0,VALID,80.023,VALID,263.231,VALID,20.795,VALID,123,VALID,1.53633,
2017-02-03, 15:21:04,VALID,918.483,VALID,0,VALID,78.9862,VALID,251.735,VALID,20.756,VALID,95,VALID,1.30391,
2017-02-03, 15:22:04,VALID,918.465,VALID,0,VALID,82.0508,VALID,231.213,VALID,20.756,VALID,90,VALID,1.26563,
2017-02-03, 15:23:04,VALID,918.476,VALID,0,VALID,82.6988,VALID,233.147,VALID,20.795,VALID,82,VALID,1.19297,
2017-02-03, 15:24:04,VALID,918.432,VALID,0,VALID,81.5477,VALID,246.792,VALID,20.8714,VALID,75,VALID,1.32187,
2017-02-03, 15:25:04,VALID,918.434,VALID,0,VALID,78.1248,VALID,268.066,VALID,20.8535,VALID,80,VALID,1.46367,
2017-02-03, 15:26:04,VALID,918.444,VALID,0,VALID,80.1678,VALID,298.901,VALID,20.8145,VALID,95,VALID,1.37539,
2017-02-03, 15:27:04,VALID,918.467,VALID,0,VALID,78.8337,VALID,314.48,VALID,20.834,VALID,90,VALID,0.909375,
2017-02-03, 15:28:04,VALID,918.471,VALID,0,VALID,79.3903,VALID,326.621,VALID,20.93,VALID,88,VALID,0,
2017-02-03, 15:29:04,VALID,918.486,VALID,0,VALID,77.7131,VALID,325.117,VALID,21.0291,VALID,96,VALID,0,
2017-02-03, 15:30:04,VALID,918.478,VALID,0,VALID,77.3472,VALID,336.076,VALID,21.164,VALID,86,VALID,0,
2017-02-03, 15:31:04,VALID,918.473,VALID,0,VALID,79.5275,VALID,344.349,VALID,21.3396,VALID,59,VALID,0,
2017-02-03, 15:32:04,VALID,918.443,VALID,0,VALID,78.9024,VALID,341.233,VALID,21.5347,VALID,58,VALID,0,
2017-02-03, 15:33:04,VALID,918.459,VALID,0,VALID,77.0041,VALID,342.63,VALID,21.7103,VALID,74,VALID,0,
2017-02-03, 15:34:04,VALID,918.457,VALID,0,VALID,74.4503,VALID,336.183,VALID,21.8062,VALID,119,VALID,0,
2017-02-03, 15:35:04,VALID,918.447,VALID,0,VALID,73.9776,VALID,343.597,VALID,22.0437,VALID,105,VALID,0,
2017-02-03, 15:36:04,VALID,918.474,VALID,0,VALID,72.5902,VALID,346.713,VALID,22.1217,VALID,116,VALID,0,
2017-02-03, 15:37:04,VALID,918.478,VALID,0,VALID,74.7705,VALID,348.539,VALID,22.2957,VALID,54,VALID,0,
2017-02-03, 15:38:04,VALID,918.45,VALID,0,VALID,73.3982,VALID,346.39,VALID,22.3737,VALID,56,VALID,0,
2017-02-03, 15:39:04,VALID,918.465,VALID,0,VALID,72.209,VALID,348.432,VALID,22.4323,VALID,56,VALID,0,
2017-02-03, 15:40:04,VALID,918.426,VALID,0,VALID,74.4884,VALID,358.639,VALID,22.5299,VALID,65,VALID,0,
2017-02-03, 15:41:04,VALID,918.456,VALID,0,VALID,72.1861,VALID,347.787,VALID,22.5494,VALID,66,VALID,0,
2017-02-03, 15:42:04,VALID,918.454,VALID,0,VALID,72.0032,VALID,356.919,VALID,22.5689,VALID,74,VALID,0,
2017-02-03, 15:43:04,VALID,918.474,VALID,0,VALID,72.552,VALID,362.184,VALID,22.5884,VALID,76,VALID,0,
2017-02-03, 15:44:04,VALID,918.505,VALID,0,VALID,73.0399,VALID,368.953,VALID,22.647,VALID,137,VALID,0,
2017-02-03, 15:45:04,VALID,918.503,VALID,0,VALID,71.6296,VALID,367.449,VALID,22.7428,VALID,141,VALID,0,
2017-02-03, 15:46:04,VALID,918.491,VALID,0,VALID,70.4175,VALID,375.185,VALID,22.938,VALID,141,VALID,0,
2017-02-03, 15:47:04,VALID,918.54,VALID,0,VALID,72.9027,VALID,379.052,VALID,23.1739,VALID,146,VALID,0,
2017-02-03, 15:48:04,VALID,918.518,VALID,0,VALID,69.8152,VALID,385.177,VALID,23.3088,VALID,166,VALID,0,
2017-02-03, 15:49:04,VALID,918.539,VALID,0,VALID,69.6247,VALID,382.598,VALID,23.504,VALID,136,VALID,0,
2017-02-03, 15:50:04,VALID,918.546,VALID,0,VALID,67.1775,VALID,375.722,VALID,23.6016,VALID,136,VALID,0,
2017-02-03, 15:51:04,VALID,918.563,VALID,0,VALID,67.7036,VALID,370.672,VALID,23.6406,VALID,136,VALID,0,
2017-02-03, 15:52:04,VALID,918.576,VALID,0,VALID,66.4457,VALID,385.499,VALID,23.5821,VALID,142,VALID,0,
2017-02-03, 15:53:04,VALID,918.584,VALID,0,VALID,67.9704,VALID,386.251,VALID,23.5626,VALID,171,VALID,0,
2017-02-03, 15:54:04,VALID,918.599,VALID,0,VALID,67.6731,VALID,400.003,VALID,23.5803,VALID,186,VALID,0,
2017-02-03, 15:55:04,VALID,918.606,VALID,0,VALID,67.8103,VALID,401.078,VALID,23.5998,VALID,165,VALID,0,
2017-02-03, 15:56:04,VALID,918.637,VALID,0,VALID,69.3197,VALID,388.077,VALID,23.6797,VALID,160,VALID,0,
2017-02-03, 15:57:04,VALID,918.67,VALID,0,VALID,68.5879,VALID,391.838,VALID,23.6406,VALID,150,VALID,0,
2017-02-03, 15:58:04,VALID,918.681,VALID,0,VALID,67.452,VALID,401.4,VALID,23.7364,VALID,159,VALID,0,
2017-02-03, 15:59:04,VALID,918.669,VALID,0,VALID,67.9018,VALID,398.607,VALID,23.6584,VALID,171,VALID,0,
2017-02-03, 16:00:04,VALID,918.667,VALID,0,VALID,66.4076,VALID,403.871,VALID,23.6584,VALID,161,VALID,0,
2017-02-03, 16:01:04,VALID,918.715,VALID,0,VALID,65.2031,VALID,397.532,VALID,23.5803,VALID,147,VALID,0,
2017-02-03, 16:02:04,VALID,918.709,VALID,0,VALID,63.8918,VALID,389.689,VALID,23.4241,VALID,158,VALID,0,
2017-02-03, 16:03:04,VALID,918.734,VALID,0,VALID,65.1421,VALID,380.449,VALID,23.2662,VALID,167,VALID,0,
2017-02-03, 16:04:04,VALID,918.734,VALID,0,VALID,66.6439,VALID,366.804,VALID,23.1917,VALID,132,VALID,0,
2017-02-03, 16:05:04,VALID,918.756,VALID,0,VALID,64.4865,VALID,369.598,VALID,23.0924,VALID,145,VALID,1.57578,
2017-02-03, 16:06:04,VALID,918.711,VALID,0,VALID,64.6085,VALID,370.672,VALID,23.0941,VALID,134,VALID,1.59102,
2017-02-03, 16:07:04,VALID,918.759,VALID,0,VALID,64.8676,VALID,366.804,VALID,23.0941,VALID,146,VALID,1.62461,
2017-02-03, 16:08:04,VALID,918.769,VALID,0,VALID,60.6367,VALID,372.821,VALID,23.1527,VALID,135,VALID,0.0195313,
2017-02-03, 16:09:04,VALID,918.77,VALID,0,VALID,62.0546,VALID,371.531,VALID,23.1917,VALID,142,VALID,0,
2017-02-03, 16:10:04,VALID,918.785,VALID,0,VALID,66.2399,VALID,365.085,VALID,23.2698,VALID,164,VALID,0.542188,
2017-02-03, 16:11:04,VALID,918.771,VALID,0,VALID,66.217,VALID,366.052,VALID,23.307,VALID,163,VALID,0.00273437,
2017-02-03, 16:12:04,VALID,918.759,VALID,0,VALID,64.0977,VALID,385.284,VALID,23.3869,VALID,149,VALID,0.000390625,
2017-02-03, 16:13:04,VALID,918.776,VALID,0,VALID,64.7838,VALID,415.045,VALID,23.2094,VALID,153,VALID,0.0902344,
2017-02-03, 16:14:04,VALID,918.794,VALID,0,VALID,65.7672,VALID,386.251,VALID,23.2112,VALID,153,VALID,0.09375,
2017-02-03, 16:15:04,VALID,918.804,VALID,0,VALID,66.2322,VALID,374.647,VALID,23.0924,VALID,154,VALID,0,
2017-02-03, 16:16:04,VALID,918.804,VALID,0,VALID,66.6744,VALID,405.268,VALID,23.0338,VALID,146,VALID,0.809375,
2017-02-03, 16:17:04,VALID,918.805,VALID,0,VALID,67.7798,VALID,412.359,VALID,23.0143,VALID,145,VALID,0.140625,
2017-02-03, 16:18:04,VALID,918.824,VALID,0,VALID,69.03,VALID,420.31,VALID,23.0551,VALID,149,VALID,0,
2017-02-03, 16:19:04,VALID,918.776,VALID,0,VALID,68.5421,VALID,438.575,VALID,23.1509,VALID,166,VALID,0,
2017-02-03, 16:20:04,VALID,918.739,VALID,0,VALID,69.6933,VALID,491.973,VALID,23.3265,VALID,115,VALID,0,
2017-02-03, 16:21:04,VALID,918.752,VALID,0,VALID,69.7771,VALID,510.238,VALID,23.5608,VALID,149,VALID,0,
2017-02-03, 16:22:04,VALID,918.77,VALID,0,VALID,68.2372,VALID,511.205,VALID,23.6974,VALID,124,VALID,0,
2017-02-03, 16:23:04,VALID,918.782,VALID,0,VALID,66.8497,VALID,493.047,VALID,23.7755,VALID,134,VALID,0,
2017-02-03, 16:24:04,VALID,918.785,VALID,0,VALID,69.6247,VALID,516.899,VALID,23.8127,VALID,166,VALID,0.00585938,
2017-02-03, 16:25:04,VALID,918.777,VALID,0,VALID,65.9349,VALID,502.073,VALID,24.0274,VALID,186,VALID,0,
2017-02-03, 16:26:04,VALID,918.794,VALID,0,VALID,68.7251,VALID,481.981,VALID,24.244,VALID,149,VALID,0,
2017-02-03, 16:27:04,VALID,918.844,VALID,0,VALID,64.6237,VALID,487.353,VALID,24.2031,VALID,161,VALID,1.48984,
2017-02-03, 16:28:04,VALID,918.857,VALID,0,VALID,66.339,VALID,502.61,VALID,23.9493,VALID,153,VALID,0,
2017-02-03, 16:29:04,VALID,918.863,VALID,0,VALID,67.1928,VALID,506.907,VALID,24.0097,VALID,160,VALID,0.524219,
2017-02-03, 16:30:04,VALID,918.865,VALID,0,VALID,65.3022,VALID,493.155,VALID,23.8517,VALID,144,VALID,0.0121094,
2017-02-03, 16:31:04,VALID,918.86,VALID,0,VALID,69.1977,VALID,500.461,VALID,23.9512,VALID,179,VALID,0,
2017-02-03, 16:32:04,VALID,918.852,VALID,0,VALID,65.4089,VALID,515.288,VALID,23.9493,VALID,145,VALID,0.0105469,
2017-02-03, 16:33:04,VALID,918.861,VALID,0,VALID,65.1878,VALID,519.478,VALID,23.8713,VALID,154,VALID,0,
2017-02-03, 16:34:04,VALID,918.856,VALID,0,VALID,67.3681,VALID,492.188,VALID,24.0097,VALID,161,VALID,0,
2017-02-03, 16:35:04,VALID,918.822,VALID,0,VALID,64.7762,VALID,504.759,VALID,24.1659,VALID,146,VALID,1.5793,
2017-02-03, 16:36:04,VALID,918.829,VALID,0,VALID,62.0546,VALID,512.602,VALID,24.2049,VALID,159,VALID,1.72148,
2017-02-03, 16:37:04,VALID,918.811,VALID,0,VALID,64.6008,VALID,539.032,VALID,24.1836,VALID,140,VALID,1.31953,
2017-02-03, 16:38:04,VALID,918.787,VALID,0,VALID,60.1411,VALID,547.198,VALID,24.1659,VALID,159,VALID,1.51523,
2017-02-03, 16:39:04,VALID,918.764,VALID,0,VALID,61.8716,VALID,546.338,VALID,24.2245,VALID,158,VALID,0.66875,
2017-02-03, 16:40:04,VALID,918.754,VALID,0,VALID,59.8591,VALID,550.743,VALID,24.4374,VALID,123,VALID,0,
2017-02-03, 16:41:04,VALID,918.75,VALID,0,VALID,57.351,VALID,550.743,VALID,24.7107,VALID,153,VALID,0.905859,
2017-02-03, 16:42:04,VALID,918.736,VALID,0,VALID,46.9831,VALID,544.619,VALID,24.8083,VALID,137,VALID,1.01367,
2017-02-03, 16:43:04,VALID,918.732,VALID,0,VALID,54.759,VALID,553.859,VALID,24.9645,VALID,140,VALID,0,
2017-02-03, 16:44:04,VALID,918.752,VALID,0,VALID,53.6765,VALID,539.569,VALID,24.8864,VALID,142,VALID,0,
2017-02-03, 16:45:04,VALID,918.723,VALID,0,VALID,59.3864,VALID,557.62,VALID,24.984,VALID,139,VALID,1.36016,
2017-02-03, 16:46:04,VALID,918.76,VALID,0,VALID,60.0115,VALID,567.934,VALID,25.0798,VALID,134,VALID,0.41875,
2017-02-03, 16:47:04,VALID,918.742,VALID,0,VALID,59.6913,VALID,581.364,VALID,25.2183,VALID,118,VALID,0.359766,
2017-02-03, 16:48:04,VALID,918.782,VALID,0,VALID,51.3742,VALID,580.612,VALID,25.2945,VALID,87,VALID,1.47461,
2017-02-03, 16:49:04,VALID,918.773,VALID,0,VALID,56.924,VALID,579,VALID,25.2183,VALID,85,VALID,1.69141,
2017-02-03, 16:50:04,VALID,918.8,VALID,0,VALID,50.8787,VALID,555.793,VALID,25.1207,VALID,86,VALID,1.70078,
2017-02-03, 16:51:04,VALID,918.792,VALID,0,VALID,48.7517,VALID,574.273,VALID,24.9431,VALID,105,VALID,1.15742,
2017-02-03, 16:52:04,VALID,918.789,VALID,0,VALID,54.6599,VALID,572.339,VALID,24.9821,VALID,87,VALID,1.63984,
2017-02-03, 16:53:04,VALID,918.765,VALID,0,VALID,50.6652,VALID,569.76,VALID,25.0621,VALID,112,VALID,1.64961,
2017-02-03, 16:54:04,VALID,918.77,VALID,0,VALID,50.0401,VALID,549.347,VALID,25.0993,VALID,124,VALID,1.60742,
2017-02-03, 16:55:04,VALID,918.778,VALID,0,VALID,52.6854,VALID,573.091,VALID,25.236,VALID,95,VALID,1.1582,
2017-02-03, 16:56:04,VALID,918.75,VALID,0,VALID,49.4074,VALID,567.612,VALID,25.1969,VALID,68,VALID,1.56641,
2017-02-03, 16:57:04,VALID,918.78,VALID,0,VALID,52.2661,VALID,550.099,VALID,25.1969,VALID,133,VALID,1.27422,
2017-02-03, 16:58:04,VALID,918.728,VALID,0,VALID,51.9765,VALID,537.206,VALID,25.2555,VALID,124,VALID,0.871875,
2017-02-03, 16:59:04,VALID,918.754,VALID,0,VALID,47.1661,VALID,566.645,VALID,25.4117,VALID,92,VALID,1.12578,
2017-02-03, 17:00:04,VALID,918.749,VALID,0,VALID,50.3679,VALID,587.273,VALID,25.5484,VALID,46,VALID,0.992578,
2017-02-03, 17:01:04,VALID,918.752,VALID,0,VALID,49.0719,VALID,568.471,VALID,25.7847,VALID,80,VALID,1.09922,
2017-02-03, 17:02:04,VALID,918.741,VALID,0,VALID,49.171,VALID,557.19,VALID,25.8823,VALID,32,VALID,0.00195313,
2017-02-03, 17:03:04,VALID,918.751,VALID,0,VALID,44.2844,VALID,562.132,VALID,25.9389,VALID,82,VALID,0,
2017-02-03, 17:04:04,VALID,918.749,VALID,0,VALID,45.6566,VALID,563.421,VALID,25.8237,VALID,58,VALID,0.00585938,
2017-02-03, 17:05:04,VALID,918.717,VALID,0,VALID,49.1939,VALID,568.364,VALID,25.646,VALID,60,VALID,0,
2017-02-03, 17:06:04,VALID,918.739,VALID,0,VALID,51.9078,VALID,574.81,VALID,25.6655,VALID,108,VALID,0,
2017-02-03, 17:07:04,VALID,918.71,VALID,0,VALID,54.3931,VALID,576.637,VALID,25.8042,VALID,85,VALID,0,
2017-02-03, 17:08:04,VALID,918.697,VALID,0,VALID,50.4213,VALID,556.867,VALID,26.019,VALID,78,VALID,0,
2017-02-03, 17:09:04,VALID,918.658,VALID,0,VALID,46.2131,VALID,566.967,VALID,26.2514,VALID,133,VALID,0,
2017-02-03, 17:10:04,VALID,918.66,VALID,0,VALID,46.1217,VALID,561.38,VALID,26.2905,VALID,140,VALID,0,
2017-02-03, 17:11:04,VALID,918.651,VALID,0,VALID,47.593,VALID,554.611,VALID,26.5444,VALID,139,VALID,0,
2017-02-03, 17:12:04,VALID,918.62,VALID,0,VALID,46.4114,VALID,556.115,VALID,26.6226,VALID,131,VALID,0,
2017-02-03, 17:13:04,VALID,918.627,VALID,0,VALID,49.6437,VALID,552.355,VALID,26.5835,VALID,114,VALID,0,
2017-02-03, 17:14:04,VALID,918.631,VALID,0,VALID,46.5028,VALID,539.14,VALID,26.7007,VALID,110,VALID,0,
2017-02-03, 17:15:04,VALID,918.623,VALID,0,VALID,49.4379,VALID,518.941,VALID,26.7398,VALID,85,VALID,0,
2017-02-03, 17:16:04,VALID,918.627,VALID,0,VALID,49.4379,VALID,520.982,VALID,26.9351,VALID,43,VALID,0,
2017-02-03, 17:17:04,VALID,918.631,VALID,0,VALID,47.2957,VALID,523.453,VALID,27.0328,VALID,326,VALID,0,
2017-02-03, 17:18:04,VALID,918.608,VALID,0,VALID,48.828,VALID,536.561,VALID,26.9526,VALID,338,VALID,0,
2017-02-03, 17:19:04,VALID,918.62,VALID,0,VALID,50.0096,VALID,555.578,VALID,26.8354,VALID,344,VALID,0,
2017-02-03, 17:20:04,VALID,918.605,VALID,0,VALID,50.0249,VALID,528.61,VALID,26.7007,VALID,352,VALID,0.0625,
2017-02-03, 17:21:04,VALID,918.608,VALID,0,VALID,52.3195,VALID,529.255,VALID,26.5054,VALID,2,VALID,0,
2017-02-03, 17:22:04,VALID,918.609,VALID,0,VALID,50.7338,VALID,513.569,VALID,26.3882,VALID,43,VALID,0,
2017-02-03, 17:23:04,VALID,918.591,VALID,0,VALID,51.5343,VALID,519.048,VALID,26.4858,VALID,37,VALID,0,
2017-02-03, 17:24:04,VALID,918.616,VALID,0,VALID,51.9688,VALID,535.057,VALID,26.6596,VALID,30,VALID,0,
2017-02-03, 17:25:04,VALID,918.618,VALID,0,VALID,51.8316,VALID,483.378,VALID,26.8179,VALID,24,VALID,0,
2017-02-03, 17:26:04,VALID,918.611,VALID,0,VALID,48.4849,VALID,458.237,VALID,26.6421,VALID,281,VALID,0,
2017-02-03, 17:27:04,VALID,918.614,VALID,0,VALID,50.2993,VALID,406.235,VALID,26.4858,VALID,284,VALID,0,
2017-02-03, 17:28:04,VALID,918.589,VALID,0,VALID,52.8989,VALID,381.846,VALID,26.4077,VALID,313,VALID,0,
2017-02-03, 17:29:04,VALID,918.58,VALID,0,VALID,51.2675,VALID,318.993,VALID,26.5424,VALID,313,VALID,0,
2017-02-03, 17:30:04,VALID,918.562,VALID,0,VALID,52.5482,VALID,268.925,VALID,26.8159,VALID,313,VALID,0,
2017-02-03, 17:31:04,VALID,918.587,VALID,0,VALID,49.3311,VALID,235.726,VALID,26.9135,VALID,314,VALID,0,
2017-02-03, 17:32:04,VALID,918.599,VALID,0,VALID,47.7912,VALID,212.089,VALID,26.8745,VALID,314,VALID,0,
2017-02-03, 17:33:04,VALID,918.599,VALID,0,VALID,51.763,VALID,200.378,VALID,26.896,VALID,276,VALID,0,
2017-02-03, 17:34:04,VALID,918.628,VALID,0,VALID,46.9602,VALID,198.014,VALID,26.7418,VALID,292,VALID,0,
2017-02-03, 17:35:04,VALID,918.634,VALID,0,VALID,48.7289,VALID,193.502,VALID,26.5054,VALID,281,VALID,0,
2017-02-03, 17:36:04,VALID,918.609,VALID,0,VALID,49.4607,VALID,192.642,VALID,26.2905,VALID,276,VALID,0,
2017-02-03, 17:37:04,VALID,918.62,VALID,0,VALID,48.645,VALID,191.353,VALID,26.1342,VALID,285,VALID,0.720703,
2017-02-03, 17:38:04,VALID,918.598,VALID,0,VALID,51.0311,VALID,193.502,VALID,26.0757,VALID,12,VALID,0,
2017-02-03, 17:39:04,VALID,918.609,VALID,0,VALID,49.1405,VALID,196.402,VALID,26.2124,VALID,301,VALID,0,
2017-02-03, 17:40:04,VALID,918.593,VALID,0,VALID,49.3311,VALID,199.841,VALID,26.271,VALID,301,VALID,0,
2017-02-03, 17:41:04,VALID,918.608,VALID,0,VALID,51.5419,VALID,207.899,VALID,26.4077,VALID,301,VALID,0,
2017-02-03, 17:42:04,VALID,918.579,VALID,0,VALID,50.0782,VALID,224.23,VALID,26.5835,VALID,299,VALID,0,
2017-02-03, 17:43:04,VALID,918.575,VALID,0,VALID,53.1733,VALID,246.577,VALID,26.7007,VALID,299,VALID,0,
2017-02-03, 17:44:04,VALID,918.551,VALID,0,VALID,50.1087,VALID,261.619,VALID,26.7398,VALID,283,VALID,0,
2017-02-03, 17:45:04,VALID,918.564,VALID,0,VALID,48.6908,VALID,290.091,VALID,26.6421,VALID,252,VALID,0,
2017-02-03, 17:46:04,VALID,918.533,VALID,0,VALID,49.7352,VALID,361.969,VALID,26.4077,VALID,272,VALID,0,
2017-02-03, 17:47:04,VALID,918.554,VALID,0,VALID,50.6652,VALID,455.121,VALID,26.2905,VALID,282,VALID,0,
2017-02-03, 17:48:04,VALID,918.545,VALID,0,VALID,49.1939,VALID,517.974,VALID,26.2905,VALID,277,VALID,0,
2017-02-03, 17:49:04,VALID,918.526,VALID,0,VALID,51.4886,VALID,546.875,VALID,26.2124,VALID,285,VALID,1.25508,
2017-02-03, 17:50:04,VALID,918.504,VALID,0,VALID,51.2294,VALID,606.72,VALID,26.2124,VALID,11,VALID,0,
2017-02-03, 17:51:04,VALID,918.486,VALID,0,VALID,53.9204,VALID,613.919,VALID,26.3296,VALID,6,VALID,0.232031,
2017-02-03, 17:52:04,VALID,918.49,VALID,0,VALID,52.8684,VALID,300.62,VALID,26.4663,VALID,329,VALID,0.352734,
2017-02-03, 17:53:04,VALID,918.481,VALID,0,VALID,54.294,VALID,663.019,VALID,26.6401,VALID,344,VALID,0.388672,
2017-02-03, 17:54:04,VALID,918.478,VALID,0,VALID,54.0271,VALID,659.474,VALID,26.8374,VALID,16,VALID,0.855469,
2017-02-03, 17:55:04,VALID,918.473,VALID,0,VALID,50.9092,VALID,683.433,VALID,27.0328,VALID,297,VALID,0,
2017-02-03, 17:56:04,VALID,918.443,VALID,0,VALID,50.1316,VALID,256.247,VALID,27.0914,VALID,302,VALID,0,
2017-02-03, 17:57:04,VALID,918.425,VALID,0,VALID,48.2334,VALID,669.251,VALID,27.0328,VALID,263,VALID,0,
2017-02-03, 17:58:04,VALID,918.47,VALID,0,VALID,49.758,VALID,673.226,VALID,27.1109,VALID,271,VALID,0,
2017-02-03, 17:59:04,VALID,918.424,VALID,0,VALID,51.3437,VALID,667.747,VALID,27.2672,VALID,13,VALID,0.0417969,
2017-02-03, 18:00:04,VALID,918.409,VALID,0,VALID,46.3961,VALID,693.747,VALID,27.3454,VALID,255,VALID,0,
2017-02-03, 18:01:04,VALID,918.374,VALID,0,VALID,49.3083,VALID,685.475,VALID,27.3454,VALID,2,VALID,0,
2017-02-03, 18:02:04,VALID,918.375,VALID,0,VALID,50.5966,VALID,718.459,VALID,27.3433,VALID,1,VALID,0,
2017-02-03, 18:03:04,VALID,918.339,VALID,0,VALID,48.5764,VALID,714.376,VALID,27.3433,VALID,312,VALID,0,
2017-02-03, 18:04:04,VALID,918.343,VALID,0,VALID,51.5877,VALID,717.062,VALID,27.5408,VALID,339,VALID,0,
2017-02-03, 18:05:04,VALID,918.322,VALID,0,VALID,51.2903,VALID,729.418,VALID,27.7752,VALID,5,VALID,0,
2017-02-03, 18:06:04,VALID,918.306,VALID,0,VALID,48.95,VALID,428.69,VALID,27.8317,VALID,1,VALID,1.23633,
2017-02-03, 18:07:04,VALID,918.248,VALID,0,VALID,47.288,VALID,564.496,VALID,27.8339,VALID,254,VALID,0,
2017-02-03, 18:08:04,VALID,918.27,VALID,0,VALID,50.9549,VALID,705.888,VALID,27.7731,VALID,317,VALID,0,
2017-02-03, 18:09:04,VALID,918.273,VALID,0,VALID,46.3961,VALID,755.204,VALID,27.9685,VALID,315,VALID,0,
2017-02-03, 18:10:04,VALID,918.226,VALID,0,VALID,45.2907,VALID,725.443,VALID,28.0271,VALID,244,VALID,0,
2017-02-03, 18:11:04,VALID,918.225,VALID,0,VALID,46.6706,VALID,752.625,VALID,28.0858,VALID,42,VALID,0,
2017-02-03, 18:12:04,VALID,918.211,VALID,0,VALID,45.9768,VALID,754.559,VALID,28.2421,VALID,245,VALID,0,
2017-02-03, 18:13:04,VALID,918.193,VALID,0,VALID,46.0759,VALID,784.213,VALID,28.3789,VALID,262,VALID,0,
2017-02-03, 18:14:04,VALID,918.173,VALID,0,VALID,44.7952,VALID,799.685,VALID,27.8904,VALID,313,VALID,0,
2017-02-03, 18:15:04,VALID,918.15,VALID,0,VALID,46.4418,VALID,802.478,VALID,27.6559,VALID,264,VALID,0,
2017-02-03, 18:16:04,VALID,918.103,VALID,0,VALID,47.4481,VALID,801.081,VALID,27.441,VALID,289,VALID,0,
2017-02-03, 18:17:04,VALID,918.12,VALID,0,VALID,46.2894,VALID,789.155,VALID,27.2847,VALID,290,VALID,0,
2017-02-03, 18:18:04,VALID,918.079,VALID,0,VALID,48.8966,VALID,775.08,VALID,27.2651,VALID,328,VALID,0,
2017-02-03, 18:19:04,VALID,918.056,VALID,0,VALID,48.5078,VALID,779.163,VALID,27.2847,VALID,38,VALID,0.248437,
2017-02-03, 18:20:04,VALID,918.024,VALID,0,VALID,51.1074,VALID,795.709,VALID,27.4605,VALID,237,VALID,0,
2017-02-03, 18:21:04,VALID,918.002,VALID,0,VALID,48.9576,VALID,796.246,VALID,27.6147,VALID,346,VALID,0,